Content
SEND FEEDBACK

Daily
Averages
Monthly
Summary
Canada

VANCOUVER, BRITISH COLUMBIA


Home > North America > Canada > British Columbia
Elevation: 7 feet     Latitude: 49 11N     Longitude: 123 10W

WEATHER
 
SELECT A DAY
Number of Records: 249,307;   Date Range: 5/15/97 - 7/28/14
 
SHARE

PRINT THIS DATA

[ ← Previous Day ]
WEATHER ALMANAC - AUGUST 25, 2013
[ Next Day → ]
[ °C ]   °F
Weather ElementAverageHighLow
Temperature60.2 °F66.2 °F (2:15 pm)51.8 °F (5:55 am)
Dewpoint52 °F55.4 °F (3:35 pm)50 °F (12:35 am)
Humidity75 %94 % (5:55 am)60 % (5:35 pm)
Barometer29.89 in29.94 in (9:55 am)29.84 in (7:35 pm)
Wind Speed3.7 mph9.2 mph (8:15 pm)
Weather ElementAverage
Visibility10 mi
Wind DirectionESE (111.4 °)

Weather ElementTotal
Precipitation---
Heating Degree Days6 (Base 65)
Growing Degree Days9 (Base 50)
Averaged from 71 records on August 25, 2013
WEATHER CONDITIONS BREAKOUT
WIND DIRECTION BREAKOUT
WEATHER BY HOUR - AUGUST 25, 2013
[ °C ]   °F
Local TimeTemperatureDewpointHumidityBarometerVisibilityWind DirectionWind SpeedGust SpeedPrecipitationEventsConditions
12:35 AM59.0 °F50.0 °F72 %29.91 in10.0 miNorthMostly Cloudy
12:55 AM59.0 °F51.8 °F77 %29.91 in10.0 miNorthOvercast
1:15 AM57.2 °F51.8 °F82 %29.91 in10.0 miCalmMostly Cloudy
1:35 AM57.2 °F51.8 °F82 %29.91 in10.0 miCalmScattered Clouds
1:55 AM57.2 °F51.8 °F82 %29.91 in10.0 miNorthPartly Cloudy
2:15 AM57.2 °F51.8 °F82 %29.91 in10.0 miSouth (180°)4.6 mphMostly Cloudy
2:35 AM57.2 °F51.8 °F82 %29.91 in10.0 miNorthMostly Cloudy
2:55 AM55.4 °F51.8 °F88 %29.91 in10.0 miNorthScattered Clouds
3:15 AM55.4 °F51.8 °F88 %29.91 in10.0 miCalmClear
3:35 AM55.4 °F51.8 °F88 %29.92 in10.0 miNorthPartly Cloudy
3:55 AM55.4 °F51.8 °F88 %29.92 in10.0 miNorthClear
4:15 AM53.6 °F50.0 °F88 %29.92 in10.0 miNorthClear
4:35 AM55.4 °F50.0 °F82 %29.92 in10.0 miNorthScattered Clouds
4:55 AM55.4 °F51.8 °F88 %29.91 in10.0 miNorthMostly Cloudy
5:15 AM55.4 °F50.0 °F82 %29.92 in10.0 miCalmOvercast
5:35 AM53.6 °F50.0 °F88 %29.92 in10.0 miCalmPartly Cloudy
5:55 AM51.8 °F50.0 °F94 %29.93 in10.0 miCalmClear
6:15 AM51.8 °F50.0 °F94 %29.93 in10.0 miCalmClear
6:35 AM53.6 °F50.0 °F88 %29.93 in10.0 miCalmClear
6:55 AM53.6 °F50.0 °F88 %29.93 in10.0 miCalmClear
7:15 AM53.6 °F50.0 °F88 %29.93 in10.0 miNorthClear
7:35 AM53.6 °F51.8 °F94 %29.93 in10.0 miNorthClear
7:55 AM55.4 °F51.8 °F88 %29.93 in10.0 miCalmClear
8:15 AM57.2 °F51.8 °F82 %29.93 in10.0 miCalmClear
8:35 AM59.0 °F51.8 °F77 %29.93 in10.0 miCalmClear
8:55 AM59.0 °F51.8 °F77 %29.93 in10.0 miCalmClear
9:15 AM59.0 °F53.6 °F82 %29.93 in10.0 miNorth (350°)4.6 mphClear
9:35 AM57.2 °F51.8 °F82 %29.93 in10.0 miCalmClear
9:55 AM57.2 °F51.8 °F82 %29.94 in10.0 miCalmClear
10:15 AM57.2 °F51.8 °F82 %29.94 in10.0 miNorth (10°)4.6 mphClear
10:35 AM59.0 °F53.6 °F82 %29.93 in10.0 miCalmClear
10:55 AM59.0 °F53.6 °F82 %29.93 in10.0 miNorth (10°)3.5 mphClear
11:15 AM59.0 °F53.6 °F82 %29.93 in10.0 miCalmClear
11:35 AM60.8 °F53.6 °F77 %29.93 in10.0 miNorth (360°)4.6 mphClear
11:55 AM62.6 °F53.6 °F72 %29.92 in10.0 miNorth (10°)5.8 mphClear
12:15 PM60.8 °F53.6 °F77 %29.92 in10.0 miNorth (350°)5.8 mphClear
12:35 PM62.6 °F53.6 °F72 %29.91 in10.0 miNNW (340°)5.8 mphClear
12:55 PM64.4 °F53.6 °F68 %29.91 in10.0 miNNW (340°)5.8 mphClear
1:15 PM64.4 °F53.6 °F68 %29.90 in10.0 miNNW (330°)6.9 mphClear
1:35 PM64.4 °F53.6 °F68 %29.90 in10.0 miNNW (340°)5.8 mphClear
1:55 PM64.4 °F53.6 °F68 %29.89 in10.0 miNorth (350°)5.8 mphClear
2:15 PM66.2 °F53.6 °F64 %29.89 in10.0 miNorth (360°)5.8 mphClear
2:35 PM66.2 °F53.6 °F64 %29.88 in10.0 miNNW (340°)4.6 mphClear
2:55 PM66.2 °F53.6 °F64 %29.88 in10.0 miCalmClear
3:15 PM66.2 °F53.6 °F64 %29.87 in10.0 miNNW (340°)5.8 mphClear
3:35 PM66.2 °F55.4 °F68 %29.87 in10.0 miCalmClear
3:55 PM66.2 °F53.6 °F64 %29.86 in10.0 miNorthClear
4:15 PM64.4 °F55.4 °F73 %29.86 in10.0 miNorth (360°)3.5 mphClear
4:35 PM64.4 °F55.4 °F73 %29.86 in10.0 miCalmClear
4:55 PM66.2 °F53.6 °F64 %29.86 in10.0 miCalmClear
5:15 PM66.2 °F53.6 °F64 %29.86 in10.0 miCalmClear
5:35 PM66.2 °F51.8 °F60 %29.85 in10.0 miCalmClear
5:55 PM66.2 °F51.8 °F60 %29.86 in10.0 miSSW (200°)5.8 mphClear
6:15 PM66.2 °F53.6 °F64 %29.85 in10.0 miSouth (180°)3.5 mphClear
6:35 PM66.2 °F53.6 °F64 %29.85 in10.0 miSouth (180°)4.6 mphClear
6:55 PM66.2 °F53.6 °F64 %29.85 in10.0 miSouth (190°)5.8 mphClear
7:15 PM64.4 °F53.6 °F68 %29.85 in10.0 miSouth (190°)5.8 mphClear
7:35 PM64.4 °F51.8 °F64 %29.84 in10.0 miSouth (180°)5.8 mphClear
7:55 PM62.6 °F51.8 °F68 %29.85 in10.0 miSouth (190°)6.9 mphScattered Clouds
8:15 PM62.6 °F50.0 °F63 %29.85 in10.0 miSouth (180°)9.2 mphMostly Cloudy
8:35 PM62.6 °F50.0 °F63 %29.85 in10.0 miSouth (180°)6.9 mphScattered Clouds
8:55 PM62.6 °F50.0 °F63 %29.86 in10.0 miSouth (180°)8.1 mphScattered Clouds
9:15 PM62.6 °F50.0 °F63 %29.85 in10.0 miSouth (190°)6.9 mphClear
9:35 PM62.6 °F50.0 °F63 %29.85 in10.0 miSouth (180°)5.8 mphClear
9:55 PM62.6 °F50.0 °F63 %29.85 in10.0 miSouth (180°)6.9 mphClear
10:15 PM60.8 °F50.0 °F68 %29.85 in10.0 miSouth (190°)9.2 mphClear
10:35 PM60.8 °F50.0 °F68 %29.86 in10.0 miSouth (190°)9.2 mphPartly Cloudy
10:55 PM59.0 °F50.0 °F72 %29.86 in10.0 miSouth (180°)6.9 mphClear
11:15 PM59.0 °F50.0 °F72 %29.86 in10.0 miSouth (190°)6.9 mphClear
11:35 PM59.0 °F50.0 °F72 %29.85 in10.0 miSSW (200°)8.1 mphPartly Cloudy
11:55 PM60.8 °F50.0 °F68 %29.85 in10.0 miSouth (190°)8.1 mphClear
Hourly data recorded from CZBB, located miles away from Vancouver, British Columbia







STORIES FROM OUR PARTNERS